Stündliche Wetter Holyky

Heute, 15 Juni, Dienstag

Zeit Temperatur Niederschläge Wind Luftdruck Luftfeuchtigkeit
00:00 +13°C° 0 mm 3 m/S 742 mmHg 96%
01:00 +13°C° 0 mm 3 m/S 741 mmHg 96%
02:00 +13°C° 0 mm 2 m/S 741 mmHg 97%
03:00 +13°C° 0 mm 2 m/S 742 mmHg 97%
04:00 +13°C° 0 mm 2 m/S 742 mmHg 97%
05:00 +13°C° 0 mm 2 m/S 742 mmHg 97%
06:00 +14°C° 0 mm 3 m/S 742 mmHg 92%
07:00 +17°C° 0 mm 3 m/S 742 mmHg 86%
08:00 +19°C° 0 mm 3 m/S 742 mmHg 81%
09:00 +20°C° 0.1 mm 3 m/S 742 mmHg 78%
10:00 +21°C° 0.1 mm 3 m/S 742 mmHg 75%
11:00 +22°C° 0.1 mm 3 m/S 742 mmHg 71%
12:00 +22°C° 0.5 mm 4 m/S 741 mmHg 72%
13:00 +22°C° 0.5 mm 4 m/S 741 mmHg 72%
14:00 +22°C° 0.5 mm 4 m/S 741 mmHg 72%
15:00 +22°C° 0.2 mm 4 m/S 741 mmHg 72%
16:00 +22°C° 0.2 mm 4 m/S 741 mmHg 71%
17:00 +22°C° 0.2 mm 4 m/S 740 mmHg 71%
18:00 +21°C° 0.1 mm 4 m/S 740 mmHg 76%
19:00 +20°C° 0.1 mm 3 m/S 740 mmHg 82%
20:00 +18°C° 0.1 mm 3 m/S 740 mmHg 87%
21:00 +17°C° 0 mm 3 m/S 740 mmHg 88%
22:00 +17°C° 0 mm 3 m/S 740 mmHg 89%
23:00 +16°C° 0 mm 3 m/S 740 mmHg 91%

Morgen, 16 Juni, Mittwoch

Zeit Temperatur Niederschläge Wind Luftdruck Luftfeuchtigkeit
00:00 +14°C° 0 mm 3 m/S 740 mmHg 91%
01:00 +14°C° 0 mm 3 m/S 740 mmHg 92%
02:00 +14°C° 0 mm 2 m/S 740 mmHg 93%
03:00 +14°C° 0 mm 2 m/S 741 mmHg 93%
04:00 +14°C° 0 mm 2 m/S 741 mmHg 93%
05:00 +14°C° 0 mm 2 m/S 741 mmHg 92%
06:00 +14°C° 0 mm 3 m/S 741 mmHg 87%
07:00 +17°C° 0 mm 3 m/S 741 mmHg 81%
08:00 +19°C° 0 mm 3 m/S 741 mmHg 75%
09:00 +20°C° 0 mm 4 m/S 742 mmHg 71%
10:00 +21°C° 0 mm 4 m/S 742 mmHg 66%
11:00 +23°C° 0 mm 4 m/S 742 mmHg 61%
12:00 +23°C° 0 mm 4 m/S 742 mmHg 59%
13:00 +25°C° 0 mm 4 m/S 742 mmHg 56%
14:00 +26°C° 0 mm 4 m/S 741 mmHg 53%
15:00 +25°C° 0.1 mm 4 m/S 741 mmHg 58%
16:00 +25°C° 0.1 mm 4 m/S 741 mmHg 63%
17:00 +23°C° 0.1 mm 4 m/S 741 mmHg 68%
18:00 +22°C° 0.1 mm 3 m/S 742 mmHg 74%
19:00 +21°C° 0.1 mm 3 m/S 742 mmHg 80%
20:00 +19°C° 0.1 mm 3 m/S 742 mmHg 86%
21:00 +18°C° 0 mm 3 m/S 742 mmHg 88%
22:00 +17°C° 0 mm 3 m/S 743 mmHg 91%
23:00 +16°C° 0 mm 3 m/S 743 mmHg 94%

übermorgen, 17 Juni, Donnerstag

Zeit Temperatur Niederschläge Wind Luftdruck Luftfeuchtigkeit
00:00 +16°C° 0 mm 3 m/S 743 mmHg 95%
01:00 +16°C° 0 mm 3 m/S 743 mmHg 95%
02:00 +15°C° 0 mm 2 m/S 744 mmHg 96%
03:00 +15°C° 0 mm 2 m/S 744 mmHg 96%
04:00 +15°C° 0 mm 2 m/S 744 mmHg 96%
05:00 +15°C° 0 mm 2 m/S 744 mmHg 97%
06:00 +17°C° 0 mm 3 m/S 744 mmHg 91%
07:00 +19°C° 0 mm 3 m/S 745 mmHg 86%
08:00 +21°C° 0 mm 4 m/S 745 mmHg 80%
09:00 +22°C° 0 mm 4 m/S 745 mmHg 75%
10:00 +23°C° 0 mm 4 m/S 745 mmHg 70%
11:00 +26°C° 0 mm 4 m/S 745 mmHg 65%
12:00 +26°C° 0 mm 5 m/S 745 mmHg 62%
13:00 +27°C° 0 mm 5 m/S 745 mmHg 60%
14:00 +27°C° 0 mm 5 m/S 745 mmHg 58%
15:00 +27°C° 0 mm 4 m/S 745 mmHg 60%
16:00 +27°C° 0 mm 4 m/S 745 mmHg 62%
17:00 +27°C° 0 mm 4 m/S 745 mmHg 64%
18:00 +25°C° 0 mm 4 m/S 745 mmHg 71%
19:00 +24°C° 0 mm 3 m/S 745 mmHg 78%
20:00 +21°C° 0 mm 3 m/S 745 mmHg 85%
21:00 +20°C° 0 mm 3 m/S 746 mmHg 87%
22:00 +19°C° 0 mm 3 m/S 746 mmHg 90%
23:00 +18°C° 0 mm 2 m/S 746 mmHg 92%

18 Juni, Freitag

Zeit Temperatur Niederschläge Wind Luftdruck Luftfeuchtigkeit
00:00 +17°C° 0 mm 2 m/S 746 mmHg 93%
01:00 +17°C° 0 mm 2 m/S 746 mmHg 94%
02:00 +16°C° 0 mm 2 m/S 746 mmHg 94%
03:00 +16°C° 0 mm 2 m/S 746 mmHg 95%
04:00 +15°C° 0 mm 2 m/S 746 mmHg 95%
05:00 +15°C° 0 mm 2 m/S 746 mmHg 96%
06:00 +17°C° 0 mm 3 m/S 747 mmHg 89%
07:00 +19°C° 0 mm 3 m/S 747 mmHg 83%
08:00 +20°C° 0 mm 4 m/S 747 mmHg 77%
09:00 +22°C° 0 mm 4 m/S 747 mmHg 73%
10:00 +23°C° 0 mm 4 m/S 747 mmHg 69%
11:00 +25°C° 0 mm 4 m/S 747 mmHg 66%
12:00 +26°C° 0 mm 4 m/S 747 mmHg 63%
13:00 +26°C° 0 mm 5 m/S 746 mmHg 61%
14:00 +27°C° 0 mm 5 m/S 746 mmHg 59%
15:00 +27°C° 0 mm 5 m/S 746 mmHg 61%
16:00 +27°C° 0 mm 5 m/S 746 mmHg 64%
17:00 +26°C° 0 mm 5 m/S 746 mmHg 67%
18:00 +25°C° 0 mm 4 m/S 746 mmHg 74%
19:00 +22°C° 0 mm 3 m/S 746 mmHg 80%
20:00 +20°C° 0 mm 3 m/S 746 mmHg 87%
21:00 +20°C° 0 mm 3 m/S 746 mmHg 90%
22:00 +19°C° 0 mm 3 m/S 746 mmHg 93%
23:00 +18°C° 0 mm 3 m/S 747 mmHg 96%

19 Juni, Samstag

Zeit Temperatur Niederschläge Wind Luftdruck Luftfeuchtigkeit
00:00 +18°C° 0 mm 3 m/S 747 mmHg 96%
01:00 +17°C° 0 mm 3 m/S 747 mmHg 96%
02:00 +17°C° 0 mm 3 m/S 747 mmHg 96%
03:00 +17°C° 0 mm 3 m/S 747 mmHg 96%
04:00 +16°C° 0 mm 3 m/S 747 mmHg 96%
05:00 +16°C° 0 mm 2 m/S 747 mmHg 96%
06:00 +18°C° 0 mm 3 m/S 747 mmHg 91%
07:00 +20°C° 0 mm 3 m/S 747 mmHg 85%
08:00 +21°C° 0 mm 4 m/S 747 mmHg 80%
09:00 +22°C° 0 mm 4 m/S 747 mmHg 76%
10:00 +23°C° 0 mm 5 m/S 747 mmHg 73%
11:00 +25°C° 0 mm 5 m/S 747 mmHg 69%
12:00 +26°C° 0 mm 5 m/S 747 mmHg 66%
13:00 +26°C° 0 mm 5 m/S 747 mmHg 63%
14:00 +27°C° 0 mm 5 m/S 746 mmHg 60%
15:00 +27°C° 0.1 mm 4 m/S 746 mmHg 63%
16:00 +26°C° 0.1 mm 4 m/S 746 mmHg 66%
17:00 +26°C° 0.1 mm 3 m/S 746 mmHg 69%
18:00 +24°C° 0.1 mm 3 m/S 746 mmHg 74%
19:00 +22°C° 0.1 mm 3 m/S 746 mmHg 79%
20:00 +21°C° 0.1 mm 2 m/S 746 mmHg 84%
21:00 +20°C° 0 mm 2 m/S 746 mmHg 86%
22:00 +19°C° 0 mm 2 m/S 746 mmHg 88%
23:00 +18°C° 0 mm 2 m/S 746 mmHg 90%

20 Juni, Sonntag

Zeit Temperatur Niederschläge Wind Luftdruck Luftfeuchtigkeit
00:00 +18°C° 0 mm 2 m/S 746 mmHg 90%
01:00 +17°C° 0 mm 2 m/S 746 mmHg 90%
02:00 +17°C° 0 mm 2 m/S 746 mmHg 91%
03:00 +17°C° 0 mm 2 m/S 746 mmHg 91%
04:00 +17°C° 0 mm 2 m/S 746 mmHg 90%
05:00 +16°C° 0 mm 2 m/S 746 mmHg 90%
06:00 +18°C° 0 mm 2 m/S 746 mmHg 85%
07:00 +20°C° 0 mm 3 m/S 746 mmHg 79%
08:00 +21°C° 0 mm 3 m/S 746 mmHg 74%
09:00 +24°C° 0 mm 3 m/S 746 mmHg 68%
10:00 +25°C° 0 mm 3 m/S 746 mmHg 63%
11:00 +26°C° 0 mm 4 m/S 746 mmHg 58%
12:00 +26°C° 0 mm 3 m/S 746 mmHg 58%
13:00 +26°C° 0 mm 3 m/S 746 mmHg 58%
14:00 +26°C° 0 mm 3 m/S 745 mmHg 57%
15:00 +26°C° 0 mm 3 m/S 745 mmHg 60%
16:00 +26°C° 0 mm 2 m/S 745 mmHg 63%
17:00 +25°C° 0 mm 2 m/S 745 mmHg 66%
18:00 +24°C° 0 mm 2 m/S 745 mmHg 68%
19:00 +23°C° 0 mm 2 m/S 745 mmHg 70%
20:00 +21°C° 0 mm 2 m/S 745 mmHg 72%
21:00 +21°C° 0 mm 2 m/S 745 mmHg 72%
22:00 +20°C° 0 mm 2 m/S 745 mmHg 72%
23:00 +20°C° 0 mm 2 m/S 745 mmHg 72%
Mehr zeigen

Wir brauchen deine Erlaubnis

Meteoprog und unser Service Anbieter werden persönliche Daten aufbewahren, so wie Cookies, Geräte Bezeichnung oder ähnliche Technologien von deinem Gerät und Prozess, so wie Persönliche Daten Inhalte und Werbungen, genauso wie social Media und den Verkehr zu analysieren.

  • Aufbewahrung und/oder Zugang zu deiner Geräte Informationen.

    Cookies, Geräte Bezeichnung oder andere Informationen, können aufbewahrt oder Zugang zu deinem Gerät erhalten, für den Grund, der oben angegeben wird.

  • Personalisierte Werbung und Inhalte, Messungen, Einblick in das Publikum und Produkt Entwicklung.

    Werbungen und Inhalte können personalisiert werden, basierend auf ein Profil. Mehr Daten können besser personalisierte Werbungen und Inhalte hinzufügen. Werbung und Inhalte können gezeigt und gemessen werden. Einblicke über das Publikum, welche die Werbung gesehen haben und den Inhalt, können abgeleitet werden. So wie Daten können genutzt werden, um es zu verbessern oder die Benutzer Erfahrung zu verbessern das System und die Software.

Wenn du “Ich stimme zu” klickst, erlaubst du uns, die Cookies zu benutzen die Geräte Bezeichnung, den Web oder ähnliche Technologien zu benutzen. Deine Settings, können in deinem Gerät bei deinem Browser geändert werden.

Für den bestimmten Zweck, berechtigten Interessen beruhen darauf, mehr als auf den Inhalt. Du kannst mehr darüber in unseren Privaten und Cookie Politik lesen.